Location: Newark
(50.5930°N, 3.6720°W)
Time: 16:00:12
(UTC+00:00)

ISS - Visible Passes

Search period start: 22 August 2019 00:00
Search period end: 01 September 2019 00:00
Orbit: 410 x 421 km, 51.6° (Epoch: 23 August)

Date Brightness Start Highest point End Pass type
(mag) Time Alt. Az. Time Alt. Az. Time Alt. Az.
29 Aug -1.5 04:22:57 10° S 04:25:18 18° SE 04:27:40 10° E visible
30 Aug -1.2 03:35:23 10° SSE 03:36:43 12° SE 03:38:04 10° ESE visible
31 Aug -2.6 04:21:29 13° SSW 04:24:05 35° SSE 04:27:11 10° E visible
